[[{"header":{"parameterUnit":"m.s-1","parameterCategory":2,"la1":30.2991,"la2":30.254,"lo1":-89.0895,"lo2":-89.0444,"dy":0.0017,"dx":0.0017,"nx":28,"ny":28,"refTime":"2024-08-04T03:00:00:Z","depth":"0","parameterNumber":2,"parameterNumberName":"U-component_of_CURRENTS"},"data":[0,0,0,0,0,0,0,0,0,0,0,0,0,0,0,0,0,0,0,0,0,0,0,0,0,0,0,0,0,0,0,0,0,0,0,0,0,0,0,0,0,0,0,0,0,0,0,0,0,0,0,0,0,0,0,0,0,0,-0.2245,-0.2247,0,-0.2437,-0.2439,-0.244,-0.2523,-0.2523,-0.2524,-0.2524,-0.2624,-0.2626,-0.2628,0,0,0,0,0,0,0,0,0,0,0,0,0,-0.2009,-0.2011,-0.2244,-0.2247,-0.225,-0.2437,-0.2439,-0.2441,-0.2523,-0.2523,-0.2524,-0.2524,-0.2623,-0.2626,-0.2628,0,0,0,0,0,0,0,0,0,0,0,0,0,-0.214,-0.2012,-0.2244,-0.2319,-0.2328,-0.2437,-0.2439,-0.2441,-0.2523,-0.2523,-0.2524,-0.2524,-0.2622,-0.2625,-0.2629,-0.2641,0,0,-0.264,-0.2641,0,0,0,0,0,0,0,0,-0.2132,-0.2148,-0.2305,-0.2314,-0.2325,-0.2463,-0.2393,-0.2506,-0.2523,-0.2442,-0.2524,-0.2525,-0.2565,-0.2574,-0.26,-0.2646,-0.265,-0.264,-0.2642,-0.2644,-0.2645,0,0,0,0,0,0,0,-0.2123,-0.214,-0.2314,-0.2308,-0.2321,-0.2365,-0.2383,-0.2415,-0.2491,-0.2449,-0.2457,-0.2489,-0.2569,-0.2597,-0.2603,-0.2651,-0.264,-0.2643,-0.2645,-0.2647,-0.2634,-0.2631,0,0,0,0,0,0,-0.211,-0.2132,-0.2308,-0.232,-0.2236,-0.2369,-0.2389,-0.2412,-0.2493,-0.2509,-0.2489,-0.2493,-0.259,-0.2599,-0.2607,-0.2599,-0.2644,-0.2647,-0.2649,-0.2636,-0.2633,-0.263,0,0,0,0,0,0,-0.2104,-0.2124,-0.23,-0.2236,-0.2263,-0.2373,-0.2399,-0.2416,-0.2449,-0.2526,-0.2539,-0.2505,-0.2591,-0.2602,-0.2624,-0.2604,-0.2648,-0.2652,-0.2639,-0.2635,-0.2632,-0.26,0,0,0,0,0,0,-0.2096,-0.212,-0.2115,-0.2235,-0.2266,-0.2359,-0.24,-0.242,-0.2471,-0.2478,-0.2544,-0.2554,-0.2592,-0.2619,-0.2628,-0.261,-0.2654,-0.2642,-0.2637,-0.2633,-0.2604,-0.2596,-0.2588,0,0,0,0,0,-0.2087,-0.2081,-0.2114,-0.2135,-0.2262,-0.236,-0.2379,-0.2454,-0.2471,-0.2483,-0.2518,-0.2552,-0.2594,-0.2621,-0.2632,-0.2614,-0.2644,-0.2639,-0.2633,-0.2608,-0.2597,-0.2588,0,0,0,0,0,0,-0.1984,-0.2093,-0.2131,-0.216,-0.2253,-0.2377,-0.2387,-0.2449,-0.2489,-0.2483,-0.2545,-0.2557,-0.2564,-0.2582,-0.2609,-0.2587,-0.2615,-0.2611,-0.2591,-0.2582,-0.2574,-0.2574,-0.2657,0,0,0,0,0,-0.1959,-0.1974,-0.2103,-0.2125,-0.2161,-0.2271,-0.2314,-0.2378,-0.2444,-0.2464,-0.2512,-0.2534,-0.2548,-0.2561,-0.258,-0.2584,-0.2566,-0.2566,-0.2558,-0.2552,-0.2552,-0.251,-0.25,-0.2612,-0.2612,-0.2612,0,0,-0.1931,-0.1989,-0.2002,-0.2103,-0.2167,-0.2227,-0.2295,-0.2361,-0.24,-0.2464,-0.2493,-0.2518,-0.2541,-0.2544,-0.2545,-0.256,-0.2499,-0.2545,-0.254,-0.2544,-0.2503,-0.2493,-0.2484,-0.2608,-0.2609,-0.261,0,0,-0.1888,-0.1926,-0.1931,-0.1998,-0.2102,-0.2179,-0.2198,-0.2318,-0.2347,-0.2399,-0.243,-0.2443,-0.2486,-0.2496,-0.2504,-0.2458,-0.2461,-0.2448,-0.2418,-0.2377,-0.2368,-0.236,-0.2285,-0.2271,-0.2443,-0.2443,-0.2443,0,-0.1847,-0.1888,-0.1951,-0.1982,-0.2036,-0.2153,-0.2195,-0.2245,-0.2357,-0.2364,-0.2395,-0.2427,-0.2462,-0.2446,-0.2437,-0.2445,-0.2408,-0.2464,-0.237,-0.2362,-0.2355,-0.228,-0.2265,-0.2441,-0.2441,-0.2442,-0.2442,0,-0.1832,-0.1864,-0.1869,-0.1947,-0.2002,-0.2059,-0.2155,-0.2189,-0.2244,-0.2303,-0.2307,-0.235,-0.2369,-0.237,-0.2407,-0.2358,-0.2341,-0.237,-0.2404,-0.2342,-0.2265,-0.225,-0.2438,-0.2439,-0.2439,-0.244,0,0,-0.1762,-0.1844,-0.1849,-0.1877,-0.1994,-0.2043,-0.2076,-0.2151,-0.2152,-0.2226,-0.2218,-0.2258,-0.2284,-0.2292,-0.2317,-0.2295,-0.2219,-0.2314,-0.2313,-0.2256,-0.2091,-0.2006,-0.1981,-0.2234,-0.2232,-0.223,-0.2045,0,-0.1745,-0.1786,-0.1836,-0.1884,-0.1925,-0.2007,-0.2026,-0.2088,-0.2135,-0.2146,-0.2175,-0.2179,-0.2249,-0.2246,-0.224,-0.2238,-0.2183,-0.2264,-0.2145,-0.2141,-0.2088,-0.1963,-0.1899,-0.1724,-0.2031,-0.2028,-0.2026,0,-0.173,-0.1764,-0.1804,-0.1857,-0.1874,-0.1907,-0.1949,-0.1982,-0.2012,-0.2034,-0.2051,-0.2084,-0.2079,-0.2134,-0.2087,-0.2135,-0.2103,-0.2091,-0.2084,-0.2012,-0.2028,-0.184,-0.1685,-0.1684,-0.2004,-0.2005,-0.2007,0,-0.1676,-0.1738,-0.1765,-0.1794,-0.1872,-0.1869,-0.1901,-0.1941,-0.1951,-0.195,-0.1961,-0.1961,-0.1966,-0.1941,-0.1959,-0.2009,-0.1878,-0.194,-0.181,-0.1803,-0.1728,-0.1718,-0.1577,-0.1853,-0.1853,-0.1854,-0.1854,0,-0.1658,-0.1672,-0.1733,-0.1752,-0.1749,-0.181,-0.1798,-0.182,-0.1843,-0.1848,-0.1895,-0.1887,-0.1924,-0.1886,-0.1884,-0.1788,-0.1809,-0.1764,-0.174,-0.1708,-0.1698,-0.1681,-0.1723,-0.1847,-0.1848,-0.185,-0.1851,0,-0.1599,-0.1651,-0.167,-0.1722,-0.1729,-0.1718,-0.1747,-0.174,-0.1772,-0.1774,-0.1774,-0.1812,-0.1753,-0.1747,-0.1683,-0.1679,-0.1555,-0.1546,-0.1487,-0.146,-0.1355,-0.1397,-0.1223,-0.1191,-0.1361,-0.1357,-0.1354,0,-0.1575,-0.1586,-0.1626,-0.1622,-0.164,-0.164,-0.1643,-0.1689,-0.1705,-0.1732,-0.1733,-0.168,-0.1643,-0.1496,-0.1437,-0.1323,-0.1383,-0.1207,-0.1299,-0.1291,-0.1322,-0.1371,-0.1363,-0.1169,-0.1165,-0.1161,-0.1159,0,-0.1516,-0.1529,-0.1541,-0.1542,-0.1542,-0.1556,-0.1574,-0.1586,-0.1648,-0.1634,-0.161,-0.1563,-0.1441,-0.1298,-0.1158,-0.111,-0.1182,-0.1132,-0.1146,-0.1154,-0.1176,-0.1155,-0.1338,-0.1129,-0.1132,-0.1134,-0.1135,-0.1137,-0.1447,-0.1431,-0.1447,-0.1448,-0.1462,-0.1491,-0.1477,-0.1504,-0.1499,-0.1486,-0.1476,-0.1363,-0.1228,-0.1021,-0.0957,-0.0844,-0.0932,-0.0849,-0.0891,-0.0934,-0.0926,-0.1017,-0.0783,-0.0784,-0.0785,-0.0786,-0.0787,0,-0.1353,-0.1356,-0.1352,-0.1377,-0.1412,-0.1428,-0.1446,-0.1415,-0.1381,-0.1326,-0.1252,-0.1074,-0.0919,-0.0829,-0.0695,-0.0642,-0.0669,-0.0636,-0.0718,-0.0718,-0.0793,-0.0811,-0.0548,-0.0548,-0.0548,-0.0548,-0.0548,-0.0548,-0.1296,-0.1264,-0.1284,-0.1332,-0.1367,-0.1352,-0.1351,-0.1275,-0.1201,-0.1034,-0.092,-0.0818,-0.0756,-0.0699,-0.0608,-0.057,-0.0599,-0.0551,-0.0596,-0.07,-0.0726,-0.0751,-0.0775,-0.0509,-0.0509,-0.0501,-0.0501,-0.0501]},{"header":{"parameterUnit":"m.s-1","parameterCategory":2,"la1":30.2991,"la2":30.254,"lo1":-89.0895,"lo2":-89.0444,"dy":0.0017,"dx":0.0017,"nx":28,"ny":28,"refTime":"2024-08-04T03:00:00:Z","depth":"0","parameterNumber":3,"parameterNumberName":"V-component_of_CURRENTS"},"data":[0,0,0,0,0,0,0,0,0,0,0,0,0,0,0,0,0,0,0,0,0,0,0,0,0,0,0,0,0,0,0,0,0,0,0,0,0,0,0,0,0,0,0,0,0,0,0,0,0,0,0,0,0,0,0,0,0,0,-0.0424,-0.0424,0,-0.0335,-0.0334,-0.0332,-0.0233,-0.0232,-0.0231,-0.023,-0.0026,-0.0022,-0.0018,0,0,0,0,0,0,0,0,0,0,0,0,0,-0.0445,-0.0445,-0.0424,-0.0424,-0.0423,-0.0335,-0.0334,-0.0332,-0.0233,-0.0232,-0.023,-0.0229,-0.0028,-0.0023,-0.0017,0,0,0,0,0,0,0,0,0,0,0,0,0,-0.04,-0.0445,-0.0425,-0.0366,-0.036,-0.0336,-0.0334,-0.0332,-0.0233,-0.0232,-0.023,-0.0229,-0.003,-0.0023,-0.0017,-0.0008,0,0,0.0004,0.0006,0,0,0,0,0,0,0,0,-0.0403,-0.0399,-0.0375,-0.037,-0.0364,-0.0297,-0.0267,-0.0219,-0.0234,-0.0277,-0.023,-0.0228,-0.011,-0.0097,-0.0079,0.0001,0.001,0.0004,0.0008,0.0011,0.0013,0,0,0,0,0,0,0,-0.0406,-0.0402,-0.0385,-0.0375,-0.0368,-0.0323,-0.0315,-0.0257,-0.0199,-0.0273,-0.0267,-0.0264,-0.0105,-0.0086,-0.0074,0.0013,0.0004,0.001,0.0014,0.0016,0.0133,0.0133,0,0,0,0,0,0,-0.0431,-0.0406,-0.0388,-0.0383,-0.0384,-0.0324,-0.0315,-0.0317,-0.0201,-0.0184,-0.0266,-0.026,-0.0098,-0.0082,-0.0066,-0.0044,0.0011,0.0017,0.0021,0.0134,0.0133,0.0132,0,0,0,0,0,0,-0.0432,-0.0431,-0.0391,-0.0395,-0.0387,-0.0327,-0.0329,-0.0316,-0.0296,-0.0198,-0.0177,-0.0259,-0.0096,-0.0075,-0.0029,-0.0035,0.002,0.0026,0.0135,0.0134,0.0133,-0.0002,0,0,0,0,0,0,-0.0433,-0.0432,-0.0438,-0.0397,-0.0388,-0.0385,-0.033,-0.0315,-0.0299,-0.029,-0.0186,-0.0165,-0.0093,-0.004,-0.0022,-0.0025,0.0031,0.0136,0.0135,0.0133,0.0004,-0.0008,-0.0017,0,0,0,0,0,-0.0434,-0.0452,-0.0439,-0.0436,-0.04,-0.0387,-0.0378,-0.0325,-0.0301,-0.03,-0.0237,-0.0168,-0.0037,-0.0036,-0.0015,-0.0016,0.0137,0.0135,0.0133,0.0008,-0.0005,-0.0017,0,0,0,0,0,0,-0.0462,-0.0443,-0.0427,-0.0438,-0.0419,-0.0371,-0.0366,-0.0339,-0.0291,-0.028,-0.0185,-0.0161,-0.0119,-0.0056,-0.0058,0.0013,0.0064,0.0066,-0.0038,-0.005,-0.006,-0.006,0.0037,0,0,0,0,0,-0.0477,-0.0484,-0.0459,-0.0468,-0.0463,-0.042,-0.0407,-0.038,-0.0336,-0.0312,-0.0243,-0.017,-0.0113,-0.0075,-0.0013,0.0019,0.0087,0.0035,0.0024,0.0015,0.0028,0.0095,0.0092,0.0126,0.0126,0.0126,0,0,-0.049,-0.0482,-0.0485,-0.0474,-0.0452,-0.0455,-0.0407,-0.0401,-0.0393,-0.0298,-0.0263,-0.0206,-0.0115,-0.0077,-0.0052,-0.0023,0.0037,0.0012,0.0003,0.0023,0.0093,0.009,0.0087,0.0125,0.0125,0.0125,0,0,-0.0528,-0.0516,-0.0536,-0.0527,-0.0512,-0.0487,-0.0494,-0.0457,-0.0427,-0.0404,-0.0332,-0.029,-0.0198,-0.0139,-0.0096,-0.0128,-0.0025,-0.0104,-0.0148,-0.0085,-0.0087,-0.0088,-0.0023,-0.0017,-0.0104,-0.0104,-0.0105,0,-0.0542,-0.0566,-0.0539,-0.0555,-0.0549,-0.051,-0.0525,-0.0498,-0.045,-0.0423,-0.0406,-0.0286,-0.0226,-0.0166,-0.0181,-0.0151,-0.0092,-0.0113,-0.0099,-0.0098,-0.0097,-0.0029,-0.0021,-0.0111,-0.011,-0.011,-0.0109,0,-0.0592,-0.0609,-0.0622,-0.0625,-0.0614,-0.0627,-0.0591,-0.0572,-0.054,-0.0502,-0.0447,-0.0378,-0.0292,-0.0284,-0.0242,-0.02,-0.0156,-0.0128,-0.0071,-0.0109,-0.0035,-0.0024,-0.0121,-0.0118,-0.0116,-0.0115,0,0,-0.0623,-0.0653,-0.0655,-0.0664,-0.0654,-0.0647,-0.0637,-0.0607,-0.0574,-0.0542,-0.0491,-0.044,-0.039,-0.0339,-0.0281,-0.0243,-0.0208,-0.0189,-0.0183,-0.0131,-0.0058,-0.0039,-0.0024,-0.0175,-0.0174,-0.0173,-0.0017,0,-0.0668,-0.0723,-0.0714,-0.0743,-0.0763,-0.0717,-0.0698,-0.0659,-0.061,-0.0548,-0.0488,-0.0421,-0.0411,-0.0365,-0.0332,-0.0218,-0.0181,-0.0252,-0.0021,-0.0014,0.0002,-0.0011,-0.0011,0.0127,-0.0005,-0.0003,-0.0002,0,-0.0713,-0.0744,-0.0796,-0.0791,-0.0789,-0.0789,-0.0729,-0.0707,-0.0617,-0.0571,-0.0507,-0.0435,-0.0362,-0.0353,-0.0205,-0.0245,-0.0165,-0.01,-0.0091,-0.0011,0.0026,0.0148,0.0154,0.0216,0.0017,0.0015,0.0014,0,-0.0746,-0.0787,-0.0832,-0.0837,-0.083,-0.0817,-0.0792,-0.0715,-0.0668,-0.0574,-0.0515,-0.0424,-0.034,-0.0253,-0.0125,-0.0151,0.0046,0.0038,0.0126,0.0129,0.0209,0.0216,0.03,0.0133,0.0133,0.0132,0.0132,0,-0.0792,-0.0819,-0.0851,-0.0872,-0.0871,-0.0849,-0.081,-0.076,-0.0674,-0.0595,-0.0523,-0.0426,-0.031,-0.018,-0.0099,0.0061,0.0076,0.0129,0.0173,0.0159,0.0159,0.0283,0.0304,0.0138,0.0137,0.0136,0.0135,0,-0.0814,-0.0851,-0.0887,-0.0899,-0.0892,-0.0883,-0.0821,-0.0781,-0.0702,-0.059,-0.0556,-0.0399,-0.023,-0.0113,0.0069,0.012,0.0299,0.03,0.0273,0.0309,0.0412,0.0426,0.059,0.0637,0.0417,0.0418,0.042,0,-0.0833,-0.0867,-0.0897,-0.0902,-0.0906,-0.0889,-0.086,-0.0797,-0.0741,-0.0558,-0.0496,-0.0311,-0.0153,0.0104,0.0219,0.0373,0.0403,0.0452,0.0384,0.0428,0.0477,0.0475,0.0502,0.044,0.0441,0.0442,0.0443,0,-0.085,-0.0866,-0.0889,-0.0906,-0.09,-0.0881,-0.0837,-0.0785,-0.0677,-0.0566,-0.0368,-0.0229,0.0011,0.0199,0.0368,0.0443,0.0487,0.0477,0.0542,0.0518,0.0508,0.057,0.0327,0.0452,0.0452,0.0451,0.045,0.045,-0.0838,-0.0852,-0.0883,-0.0888,-0.0887,-0.085,-0.0748,-0.0692,-0.0569,-0.0322,-0.0275,-0.0013,0.0155,0.0399,0.0489,0.0623,0.0595,0.0639,0.0661,0.0662,0.0676,0.0444,0.0596,0.0596,0.0596,0.0596,0.0596,0,-0.0814,-0.0835,-0.0851,-0.0848,-0.0816,-0.0817,-0.0701,-0.0542,-0.0335,-0.0201,-0.001,0.0233,0.041,0.0566,0.0715,0.0792,0.08,0.0828,0.0826,0.0851,0.0677,0.0642,0.0786,0.0786,0.0786,0.0786,0.0786,0.0786,-0.0799,-0.0814,-0.083,-0.078,-0.0744,-0.0563,-0.0438,-0.0235,-0.0071,0.0232,0.0414,0.0512,0.0652,0.0796,0.0938,0.0951,0.1027,0.1014,0.1072,0.0935,0.0918,0.0902,0.0874,0.1064,0.1065,0.1226,0.1228,0.1229]}],[{"header":{"parameterUnit":"m.s-1","parameterCategory":2,"la1":30.2991,"la2":30.254,"lo1":-89.0895,"lo2":-89.0444,"dy":0.0017,"dx":0.0017,"nx":28,"ny":28,"refTime":"2024-08-04T03:00:00:Z","depth":"2","parameterNumber":2,"parameterNumberName":"U-component_of_CURRENTS"},"data":[0,0,0,0,0,0,0,0,0,0,0,0,0,0,0,0,0,0,0,0,0,0,0,0,0,0,0,0,0,0,0,0,0,0,0,0,0,0,0,0,0,0,0,0,0,0,0,0,0,0,0,0,0,0,0,0,0,0,-0.1696,-0.1696,0,-0.1714,-0.1714,-0.1715,-0.1769,-0.177,-0.1771,-0.1772,-0.1889,-0.1892,-0.1894,0,0,0,0,0,0,0,0,0,0,0,0,0,-0.1648,-0.165,-0.1696,-0.1696,-0.1695,-0.1714,-0.1714,-0.1715,-0.1769,-0.177,-0.1771,-0.1772,-0.1889,-0.1891,-0.1894,0,0,0,0,0,0,0,0,0,0,0,0,0,-0.1671,-0.165,-0.1696,-0.1723,-0.1725,-0.1714,-0.1714,-0.1715,-0.1768,-0.177,-0.1771,-0.1773,-0.1888,-0.1891,-0.1894,-0.1887,0,0,-0.1905,-0.1906,0,0,0,0,0,0,0,0,-0.1669,-0.1673,-0.1719,-0.1721,-0.1723,-0.1738,-0.1741,-0.1777,-0.1768,-0.1755,-0.1772,-0.1773,-0.1845,-0.1852,-0.1855,-0.1893,-0.1898,-0.1905,-0.1907,-0.1909,-0.191,0,0,0,0,0,0,0,-0.1668,-0.1672,-0.1706,-0.1718,-0.1721,-0.1713,-0.1719,-0.1747,-0.1796,-0.1756,-0.1759,-0.1757,-0.1848,-0.1851,-0.1858,-0.19,-0.1905,-0.1908,-0.191,-0.1911,-0.1879,-0.1876,0,0,0,0,0,0,-0.1662,-0.1671,-0.1705,-0.1706,-0.1696,-0.1713,-0.1719,-0.1734,-0.1794,-0.1802,-0.1755,-0.1759,-0.1845,-0.1854,-0.1863,-0.1863,-0.1909,-0.1912,-0.1914,-0.1881,-0.1878,-0.1875,0,0,0,0,0,0,-0.1661,-0.1665,-0.1704,-0.1685,-0.1689,-0.1713,-0.1728,-0.1734,-0.1756,-0.1791,-0.1803,-0.1774,-0.1846,-0.1858,-0.1872,-0.1868,-0.1913,-0.1916,-0.1885,-0.188,-0.1876,-0.186,0,0,0,0,0,0,-0.166,-0.1665,-0.167,-0.1686,-0.169,-0.1701,-0.1727,-0.1733,-0.1749,-0.1755,-0.1811,-0.1822,-0.1848,-0.1866,-0.1875,-0.1873,-0.1919,-0.1889,-0.1883,-0.1878,-0.1864,-0.1856,-0.1848,0,0,0,0,0,-0.1658,-0.1657,-0.167,-0.1674,-0.1698,-0.17,-0.1702,-0.1724,-0.1749,-0.1752,-0.1772,-0.1821,-0.1837,-0.1867,-0.1878,-0.1878,-0.1891,-0.1884,-0.1878,-0.1868,-0.1857,-0.1849,0,0,0,0,0,0,-0.1633,-0.1662,-0.1678,-0.1684,-0.1693,-0.1709,-0.1705,-0.1729,-0.1747,-0.1756,-0.1801,-0.1811,-0.182,-0.1832,-0.1864,-0.1839,-0.1866,-0.1861,-0.1854,-0.1844,-0.1836,-0.1864,-0.1922,0,0,0,0,0,-0.1629,-0.1637,-0.1661,-0.1661,-0.1669,-0.1691,-0.1695,-0.1713,-0.173,-0.1741,-0.1774,-0.1789,-0.1795,-0.1809,-0.1817,-0.1818,-0.1817,-0.1812,-0.1804,-0.1797,-0.1819,-0.18,-0.1795,-0.1853,-0.1853,-0.1853,0,0,-0.1613,-0.163,-0.1633,-0.1655,-0.1665,-0.1673,-0.1699,-0.1704,-0.1711,-0.175,-0.1766,-0.1775,-0.1785,-0.1778,-0.1782,-0.1797,-0.1766,-0.1789,-0.1785,-0.181,-0.1793,-0.1788,-0.1784,-0.1849,-0.185,-0.185,0,0,-0.1583,-0.1608,-0.1608,-0.1622,-0.1638,-0.1653,-0.166,-0.1683,-0.1696,-0.1702,-0.172,-0.1715,-0.1742,-0.1735,-0.1739,-0.1686,-0.1726,-0.1687,-0.1683,-0.1664,-0.1661,-0.1658,-0.1605,-0.1598,-0.1683,-0.1683,-0.1683,0,-0.1561,-0.1577,-0.1602,-0.161,-0.1617,-0.1649,-0.1652,-0.1664,-0.1685,-0.1696,-0.1703,-0.1715,-0.1716,-0.1714,-0.1684,-0.1676,-0.1669,-0.1732,-0.166,-0.1657,-0.1655,-0.1602,-0.1594,-0.1682,-0.1682,-0.1682,-0.1682,0,-0.154,-0.1554,-0.1552,-0.1581,-0.159,-0.1593,-0.1619,-0.163,-0.1651,-0.1671,-0.1679,-0.1668,-0.1681,-0.1662,-0.1665,-0.1645,-0.1643,-0.1658,-0.1701,-0.1649,-0.1594,-0.1587,-0.168,-0.168,-0.1681,-0.1681,0,0,-0.1489,-0.153,-0.1531,-0.1542,-0.1579,-0.1582,-0.1594,-0.1617,-0.1628,-0.1649,-0.1654,-0.1646,-0.1665,-0.1665,-0.1661,-0.1639,-0.1581,-0.1648,-0.1648,-0.1624,-0.1526,-0.144,-0.1423,-0.1605,-0.1605,-0.1604,-0.1479,0,-0.1465,-0.1473,-0.1502,-0.1507,-0.1517,-0.1554,-0.1562,-0.1588,-0.1607,-0.1616,-0.1629,-0.1625,-0.166,-0.1647,-0.1644,-0.1599,-0.1569,-0.1613,-0.1555,-0.1552,-0.1508,-0.1415,-0.1331,-0.1207,-0.1472,-0.1471,-0.147,0,-0.1441,-0.1453,-0.1456,-0.1484,-0.1491,-0.1498,-0.1523,-0.1532,-0.1564,-0.1577,-0.1612,-0.1626,-0.1609,-0.1622,-0.1582,-0.1619,-0.1578,-0.1543,-0.1538,-0.1472,-0.1454,-0.1306,-0.1185,-0.1458,-0.1459,-0.146,-0.1461,0,-0.1398,-0.142,-0.1421,-0.1432,-0.1468,-0.1473,-0.1489,-0.1525,-0.153,-0.1546,-0.1548,-0.1575,-0.1551,-0.1545,-0.1502,-0.154,-0.1434,-0.1465,-0.135,-0.1342,-0.1265,-0.1251,-0.1424,-0.1425,-0.1425,-0.1425,-0.1426,0,-0.1369,-0.1368,-0.1401,-0.1404,-0.1401,-0.1439,-0.1438,-0.146,-0.148,-0.1479,-0.1528,-0.1513,-0.1536,-0.1497,-0.1476,-0.138,-0.1414,-0.1331,-0.1304,-0.1246,-0.1233,-0.1466,-0.1473,-0.1421,-0.1422,-0.1422,-0.1423,0,-0.1324,-0.1348,-0.1349,-0.1378,-0.1383,-0.1381,-0.1403,-0.1401,-0.143,-0.1421,-0.1419,-0.1445,-0.1388,-0.1385,-0.1318,-0.1308,-0.1231,-0.1188,-0.11,-0.1064,-0.1158,-0.1165,-0.1042,-0.1038,-0.1034,-0.1031,-0.1029,0,-0.1302,-0.1299,-0.1319,-0.1314,-0.1325,-0.1329,-0.1329,-0.1366,-0.1363,-0.1373,-0.1354,-0.1312,-0.1268,-0.1145,-0.1093,-0.1004,-0.1096,-0.0883,-0.0936,-0.1133,-0.1119,-0.1131,-0.1142,-0.0804,-0.08,-0.0797,-0.0794,0,-0.1251,-0.126,-0.1258,-0.1251,-0.1248,-0.1246,-0.1249,-0.1238,-0.1271,-0.126,-0.1215,-0.1172,-0.107,-0.0938,-0.0836,-0.0792,-0.0896,-0.081,-0.1023,-0.0921,-0.0901,-0.089,-0.091,-0.0764,-0.0767,-0.0769,-0.0771,-0.0772,-0.12,-0.1184,-0.1179,-0.1167,-0.1168,-0.1148,-0.1098,-0.1108,-0.1078,-0.1018,-0.1052,-0.0936,-0.0896,-0.0673,-0.062,-0.0583,-0.0656,-0.0643,-0.0657,-0.0673,-0.0675,-0.0651,-0.0465,-0.0466,-0.0467,-0.0468,-0.0469,0,-0.1117,-0.1105,-0.1092,-0.1061,-0.1015,-0.1059,-0.1024,-0.0938,-0.0858,-0.0842,-0.0779,-0.0625,-0.0523,-0.0493,-0.0385,-0.0363,-0.0407,-0.0354,-0.0425,-0.0452,-0.0476,-0.0474,-0.0208,-0.0207,-0.0207,-0.0206,0,0,-0.1067,-0.1019,-0.1014,-0.0912,-0.089,-0.0777,-0.0729,-0.0637,-0.0578,-0.0483,-0.0424,-0.043,-0.0433,-0.0304,-0.0286,-0.023,-0.0343,-0.0211,-0.0414,-0.0521,-0.0545,-0.0624,-0.0647,0,0,0,0,0]},{"header":{"parameterUnit":"m.s-1","parameterCategory":2,"la1":30.2991,"la2":30.254,"lo1":-89.0895,"lo2":-89.0444,"dy":0.0017,"dx":0.0017,"nx":28,"ny":28,"refTime":"2024-08-04T03:00:00:Z","depth":"2","parameterNumber":3,"parameterNumberName":"V-component_of_CURRENTS"},"data":[0,0,0,0,0,0,0,0,0,0,0,0,0,0,0,0,0,0,0,0,0,0,0,0,0,0,0,0,0,0,0,0,0,0,0,0,0,0,0,0,0,0,0,0,0,0,0,0,0,0,0,0,0,0,0,0,0,0,-0.0347,-0.0346,0,-0.029,-0.0289,-0.0289,-0.0249,-0.0248,-0.0248,-0.0248,-0.012,-0.0117,-0.0114,0,0,0,0,0,0,0,0,0,0,0,0,0,-0.0377,-0.0377,-0.0347,-0.0346,-0.0346,-0.029,-0.0289,-0.0289,-0.0249,-0.0248,-0.0248,-0.0248,-0.0121,-0.0117,-0.0114,0,0,0,0,0,0,0,0,0,0,0,0,0,-0.0346,-0.0377,-0.0347,-0.032,-0.0317,-0.029,-0.0289,-0.0288,-0.0249,-0.0248,-0.0248,-0.0248,-0.0122,-0.0118,-0.0113,-0.0091,0,0,-0.0098,-0.0096,0,0,0,0,0,0,0,0,-0.0348,-0.0345,-0.0324,-0.0321,-0.0318,-0.0277,-0.0253,-0.0219,-0.0249,-0.0274,-0.0248,-0.0247,-0.0167,-0.0158,-0.0148,-0.0085,-0.008,-0.0098,-0.0095,-0.0093,-0.0092,0,0,0,0,0,0,0,-0.035,-0.0347,-0.0324,-0.0324,-0.032,-0.0295,-0.0291,-0.0247,-0.0221,-0.0272,-0.0269,-0.0264,-0.0164,-0.0153,-0.0145,-0.0078,-0.0098,-0.0094,-0.0091,-0.0089,0.0008,0.0008,0,0,0,0,0,0,-0.0361,-0.0349,-0.0325,-0.0322,-0.0333,-0.0295,-0.029,-0.029,-0.0223,-0.0213,-0.0264,-0.0262,-0.0161,-0.015,-0.014,-0.0109,-0.0093,-0.0089,-0.0086,0.0008,0.0008,0.0008,0,0,0,0,0,0,-0.0362,-0.036,-0.0328,-0.0334,-0.0329,-0.0296,-0.0295,-0.0289,-0.0281,-0.0218,-0.0207,-0.0263,-0.0161,-0.0147,-0.0114,-0.0103,-0.0087,-0.0082,0.0009,0.0008,0.0008,-0.0046,0,0,0,0,0,0,-0.0364,-0.0361,-0.0367,-0.0336,-0.0329,-0.0319,-0.0295,-0.0288,-0.0278,-0.0275,-0.0213,-0.0201,-0.0159,-0.0122,-0.011,-0.0096,-0.0079,0.0009,0.0008,0.0008,-0.0044,-0.0048,-0.0052,0,0,0,0,0,-0.0365,-0.0378,-0.0368,-0.0365,-0.0338,-0.0319,-0.0314,-0.0288,-0.0279,-0.0279,-0.0244,-0.0203,-0.0116,-0.0119,-0.0104,-0.0089,0.0009,0.0009,0.0008,-0.0042,-0.0048,-0.0052,0,0,0,0,0,0,-0.0395,-0.0374,-0.0363,-0.0369,-0.0348,-0.0313,-0.0313,-0.0295,-0.0268,-0.0266,-0.0209,-0.0194,-0.0161,-0.0124,-0.0128,-0.0064,-0.0045,-0.0043,-0.0088,-0.0093,-0.0097,-0.0105,-0.0075,0,0,0,0,0,-0.0405,-0.041,-0.0381,-0.0387,-0.038,-0.0348,-0.0339,-0.0321,-0.0292,-0.0281,-0.0237,-0.0192,-0.0152,-0.0124,-0.0085,-0.0049,-0.0013,-0.003,-0.0034,-0.0038,-0.0036,0.0016,0.0017,0.0006,0.0006,0.0006,0,0,-0.0417,-0.0408,-0.0409,-0.0394,-0.0377,-0.0368,-0.0342,-0.0333,-0.032,-0.0269,-0.0243,-0.0206,-0.0149,-0.0113,-0.0093,-0.0079,-0.0017,-0.0039,-0.0042,-0.0038,0.0015,0.0016,0.0018,0.0005,0.0005,0.0005,0,0,-0.0445,-0.0437,-0.0449,-0.0436,-0.0417,-0.0391,-0.0392,-0.0359,-0.034,-0.0315,-0.0275,-0.0238,-0.0176,-0.0131,-0.01,-0.0102,-0.0046,-0.0088,-0.0104,-0.0054,-0.0053,-0.0051,-0.0012,-0.0006,-0.0083,-0.0083,-0.0083,0,-0.046,-0.047,-0.0449,-0.0454,-0.0444,-0.0405,-0.0407,-0.0382,-0.0341,-0.0323,-0.0314,-0.0229,-0.0181,-0.0128,-0.013,-0.0108,-0.0079,-0.0091,-0.0059,-0.0057,-0.0054,-0.0014,-0.0007,-0.0086,-0.0085,-0.0085,-0.0085,0,-0.049,-0.0499,-0.0505,-0.0495,-0.048,-0.0478,-0.0437,-0.0417,-0.039,-0.036,-0.0315,-0.0259,-0.0204,-0.0183,-0.0154,-0.0109,-0.0095,-0.0077,-0.0048,-0.0056,-0.0014,-0.0005,-0.009,-0.0089,-0.0088,-0.0087,0,0,-0.0515,-0.0526,-0.0527,-0.053,-0.0501,-0.049,-0.0467,-0.043,-0.0411,-0.0371,-0.0338,-0.0276,-0.0248,-0.0212,-0.0167,-0.0123,-0.0079,-0.0097,-0.0093,-0.006,0.0022,0.003,0.004,-0.0058,-0.0056,-0.0055,0.0041,0,-0.0542,-0.0571,-0.0558,-0.0566,-0.0572,-0.0528,-0.0507,-0.0468,-0.0426,-0.0384,-0.0323,-0.0279,-0.0256,-0.0228,-0.0183,-0.0099,-0.0058,-0.0107,0.0027,0.0031,0.0038,0.0049,0.0016,0.0099,0.0049,0.0051,0.0052,0,-0.0567,-0.0583,-0.061,-0.0601,-0.0598,-0.0592,-0.0544,-0.052,-0.0451,-0.0419,-0.0367,-0.0316,-0.024,-0.0223,-0.0096,-0.013,-0.0064,-0.0005,0.0,0.0034,0.0055,0.0102,0.0117,0.0066,0.0065,0.0064,0.0063,0,-0.0592,-0.0609,-0.0635,-0.0634,-0.062,-0.0616,-0.0595,-0.0537,-0.0507,-0.0438,-0.0403,-0.0322,-0.026,-0.0177,-0.0059,-0.0074,0.0082,0.0083,0.0149,0.015,0.0163,0.0163,0.0166,0.0166,0.0166,0.0166,0.0165,0,-0.0618,-0.0634,-0.0655,-0.0668,-0.0676,-0.0653,-0.0638,-0.0602,-0.0542,-0.0497,-0.0428,-0.0364,-0.0245,-0.0139,-0.0055,0.0078,0.009,0.0151,0.018,0.0142,0.0139,0.0144,0.014,0.0169,0.0168,0.0168,0.0167,0,-0.064,-0.0658,-0.0685,-0.0695,-0.0694,-0.07,-0.0668,-0.065,-0.0594,-0.0526,-0.0502,-0.0377,-0.0238,-0.012,0.0042,0.0096,0.0214,0.0256,0.0196,0.0216,0.0242,0.0234,0.0333,0.0334,0.0335,0.0336,0.0337,0,-0.0655,-0.0679,-0.0709,-0.0721,-0.073,-0.0732,-0.0724,-0.068,-0.0649,-0.0525,-0.0488,-0.0343,-0.0222,0.0003,0.0126,0.0272,0.0271,0.0312,0.0276,0.0244,0.0262,0.0252,0.0244,0.0272,0.0272,0.0272,0.0272,0,-0.0678,-0.0696,-0.0719,-0.0748,-0.076,-0.0762,-0.0747,-0.0724,-0.0651,-0.0585,-0.0453,-0.0347,-0.0127,0.0035,0.0206,0.0278,0.028,0.0317,0.0327,0.0226,0.0192,0.0207,0.02,0.0273,0.0273,0.0273,0.0273,0.0273,-0.0688,-0.071,-0.0742,-0.0767,-0.0782,-0.0782,-0.0792,-0.0746,-0.0691,-0.0585,-0.0447,-0.0298,-0.0127,0.0105,0.0243,0.0335,0.0329,0.0333,0.033,0.0328,0.0295,0.0264,0.0352,0.0353,0.0353,0.0353,0.0353,0,-0.0693,-0.072,-0.0748,-0.0785,-0.0821,-0.082,-0.0801,-0.0799,-0.0745,-0.0608,-0.0477,-0.0259,-0.0074,0.0088,0.0243,0.0351,0.0334,0.0356,0.0312,0.031,0.0309,0.0273,0.0326,0.0326,0.0327,0.0327,0,0,-0.0694,-0.0726,-0.0746,-0.0813,-0.0851,-0.0908,-0.0913,-0.0853,-0.0775,-0.0626,-0.0509,-0.0337,-0.0111,-0.0001,0.0152,0.0235,0.0232,0.0233,0.0238,0.0164,0.0161,0.0277,0.0217,0,0,0,0,0]}],[{"header":{"parameterUnit":"m.s-1","parameterCategory":2,"la1":30.2991,"la2":30.254,"lo1":-89.0895,"lo2":-89.0444,"dy":0.0017,"dx":0.0017,"nx":28,"ny":28,"refTime":"2024-08-04T03:00:00:Z","depth":"4","parameterNumber":2,"parameterNumberName":"U-component_of_CURRENTS"},"data":[0,0,0,0,0,0,0,0,0,0,0,0,0,0,0,0,0,0,0,0,0,0,0,0,0,0,0,0,0,0,0,0,0,0,0,0,0,0,0,0,0,0,0,0,0,0,0,0,0,0,0,0,0,0,0,0,0,0,-0.1093,-0.1093,0,-0.1052,-0.1052,-0.1051,-0.106,-0.1061,-0.1061,-0.1062,-0.1062,-0.1061,-0.106,0,0,0,0,0,0,0,0,0,0,0,0,0,-0.1104,-0.1104,-0.1093,-0.1093,-0.1092,-0.1052,-0.1052,-0.1051,-0.106,-0.1061,-0.1062,-0.1062,-0.1062,-0.1061,-0.106,0,0,0,0,0,0,0,0,0,0,0,0,0,-0.1085,-0.1104,-0.1094,-0.1092,-0.1091,-0.1053,-0.1052,-0.1051,-0.106,-0.1061,-0.1062,-0.1063,-0.1062,-0.1061,-0.106,-0.1032,0,0,-0.1057,-0.1056,0,0,0,0,0,0,0,0,-0.1086,-0.1085,-0.1092,-0.1092,-0.1091,-0.1062,-0.1055,-0.1047,-0.1059,-0.1072,-0.1062,-0.1063,-0.1065,-0.1063,-0.1053,-0.1032,-0.1032,-0.1057,-0.1056,-0.1056,-0.1055,0,0,0,0,0,0,0,-0.1088,-0.1086,-0.1077,-0.1092,-0.1091,-0.1067,-0.1066,-0.1053,-0.1064,-0.1071,-0.1071,-0.1066,-0.1065,-0.1054,-0.1053,-0.1032,-0.1057,-0.1056,-0.1055,-0.1055,-0.1013,-0.1013,0,0,0,0,0,0,-0.1095,-0.1088,-0.1079,-0.1076,-0.1091,-0.1066,-0.1065,-0.1071,-0.1063,-0.1062,-0.1065,-0.1066,-0.1055,-0.1054,-0.1053,-0.1058,-0.1056,-0.1055,-0.1054,-0.1014,-0.1013,-0.1013,0,0,0,0,0,0,-0.1096,-0.1095,-0.108,-0.108,-0.1077,-0.1065,-0.1071,-0.1069,-0.1078,-0.1058,-0.1058,-0.1078,-0.1056,-0.1055,-0.1048,-0.1057,-0.1054,-0.1053,-0.1014,-0.1014,-0.1013,-0.1043,0,0,0,0,0,0,-0.1096,-0.1096,-0.1111,-0.1081,-0.1077,-0.1064,-0.1069,-0.1068,-0.1072,-0.1074,-0.1069,-0.1069,-0.1057,-0.105,-0.1047,-0.1056,-0.1053,-0.1015,-0.1014,-0.1013,-0.1043,-0.1044,-0.1044,0,0,0,0,0,-0.1097,-0.1104,-0.1113,-0.1112,-0.1096,-0.1064,-0.106,-0.1055,-0.1072,-0.1069,-0.1066,-0.107,-0.1042,-0.1048,-0.1045,-0.1054,-0.1015,-0.1014,-0.1013,-0.1043,-0.1044,-0.1044,0,0,0,0,0,0,-0.1108,-0.1105,-0.1114,-0.1119,-0.11,-0.1066,-0.1067,-0.1065,-0.106,-0.1071,-0.1062,-0.106,-0.1055,-0.1046,-0.1053,-0.1037,-0.103,-0.1028,-0.1053,-0.1054,-0.1055,-0.1046,-0.1052,0,0,0,0,0,-0.1121,-0.1131,-0.1114,-0.1116,-0.1115,-0.1097,-0.109,-0.1083,-0.1068,-0.1069,-0.1065,-0.1057,-0.1043,-0.1044,-0.1026,-0.102,-0.1005,-0.1022,-0.1023,-0.1024,-0.1014,-0.1009,-0.1009,-0.1009,-0.1009,-0.1009,0,0,-0.1122,-0.1123,-0.1128,-0.1121,-0.1111,-0.1095,-0.1096,-0.1085,-0.1073,-0.1069,-0.1065,-0.1059,-0.1039,-0.1028,-0.1027,-0.1028,-0.1013,-0.1023,-0.1024,-0.1012,-0.1008,-0.1008,-0.1008,-0.1008,-0.1009,-0.1009,0,0,-0.1114,-0.1137,-0.114,-0.113,-0.112,-0.1103,-0.1106,-0.1085,-0.1086,-0.1072,-0.1068,-0.1061,-0.1048,-0.103,-0.102,-0.1012,-0.1013,-0.102,-0.1026,-0.1022,-0.1022,-0.1023,-0.0996,-0.0994,-0.1027,-0.1027,-0.1027,0,-0.1117,-0.1118,-0.113,-0.1125,-0.1116,-0.1112,-0.1097,-0.1089,-0.1067,-0.1071,-0.1076,-0.1057,-0.104,-0.1027,-0.1019,-0.1014,-0.1012,-0.1029,-0.1025,-0.1025,-0.1024,-0.0997,-0.0994,-0.1028,-0.1028,-0.1028,-0.1028,0,-0.1099,-0.1107,-0.1105,-0.1104,-0.1097,-0.108,-0.1072,-0.1074,-0.1081,-0.1074,-0.1075,-0.1052,-0.1045,-0.104,-0.1024,-0.1017,-0.1016,-0.1025,-0.1028,-0.1026,-0.0997,-0.0994,-0.103,-0.103,-0.1029,-0.1029,0,0,-0.1078,-0.109,-0.1091,-0.1093,-0.1086,-0.1073,-0.1071,-0.1061,-0.1072,-0.1067,-0.1073,-0.1045,-0.1057,-0.1044,-0.1037,-0.1027,-0.101,-0.1029,-0.1029,-0.1011,-0.0997,-0.0916,-0.0904,-0.1038,-0.1038,-0.1038,-0.0976,0,-0.1055,-0.1046,-0.1057,-0.1043,-0.1036,-0.1048,-0.1045,-0.1047,-0.1056,-0.1063,-0.1061,-0.1058,-0.1054,-0.1058,-0.105,-0.1019,-0.1003,-0.1025,-0.0993,-0.099,-0.0927,-0.0898,-0.1037,-0.0973,-0.0972,-0.0971,-0.0971,0,-0.1027,-0.1027,-0.1015,-0.1025,-0.1026,-0.1022,-0.1037,-0.1033,-0.1052,-0.1066,-0.1082,-0.1084,-0.1065,-0.1064,-0.1024,-0.1049,-0.1019,-0.0994,-0.0992,-0.0901,-0.0902,-0.0974,-0.0964,-0.0964,-0.0965,-0.0965,-0.0966,0,-0.0996,-0.0996,-0.0988,-0.0988,-0.0998,-0.1009,-0.1018,-0.1041,-0.1045,-0.1073,-0.1077,-0.1085,-0.1066,-0.1056,-0.1004,-0.1025,-0.0951,-0.0976,-0.0871,-0.0865,-0.0948,-0.0948,-0.0939,-0.0939,-0.0939,-0.094,-0.094,0,-0.0956,-0.0954,-0.0981,-0.0975,-0.098,-0.0999,-0.1013,-0.1032,-0.1052,-0.1036,-0.108,-0.1051,-0.1064,-0.1027,-0.1003,-0.0911,-0.0954,-0.085,-0.084,-0.0959,-0.0962,-0.0944,-0.0946,-0.0937,-0.0938,-0.0938,-0.0939,0,-0.0918,-0.0932,-0.0932,-0.0955,-0.0965,-0.0974,-0.1005,-0.1006,-0.1038,-0.1016,-0.102,-0.1017,-0.0956,-0.0953,-0.0903,-0.0876,-0.082,-0.0778,-0.088,-0.0881,-0.0739,-0.0742,-0.0658,-0.0655,-0.0652,-0.0649,-0.0647,0,-0.0894,-0.0889,-0.0921,-0.0924,-0.0937,-0.0957,-0.096,-0.0997,-0.0982,-0.0966,-0.0928,-0.089,-0.0873,-0.0739,-0.0758,-0.0712,-0.0703,-0.0685,-0.0727,-0.0708,-0.0708,-0.0716,-0.0724,-0.0643,-0.0642,-0.0641,-0.064,0,-0.0845,-0.0868,-0.0869,-0.0879,-0.0886,-0.0886,-0.0888,-0.0868,-0.0871,-0.0913,-0.0803,-0.0762,-0.0681,-0.0652,-0.0618,-0.0592,-0.0712,-0.0655,-0.0662,-0.07,-0.0689,-0.0693,-0.0704,-0.063,-0.0632,-0.0633,-0.0633,0,-0.0813,-0.0806,-0.0811,-0.0808,-0.0818,-0.0779,-0.0803,-0.0751,-0.0739,-0.072,-0.0672,-0.0636,-0.0639,-0.0583,-0.0552,-0.0523,-0.052,-0.0524,-0.0537,-0.0549,-0.0545,-0.0517,-0.0376,0,0,0,0,0,-0.0766,-0.0738,-0.0735,-0.0702,-0.0709,-0.0703,-0.0721,-0.0739,-0.0739,-0.0632,-0.0649,-0.0568,-0.05,-0.0497,-0.0441,-0.0514,-0.0537,-0.0451,-0.0552,-0.0574,-0.0586,-0.0594,0,0,0,0,0,0,-0.0727,-0.0719,-0.0701,-0.0608,-0.0564,-0.0541,-0.0548,-0.0557,-0.0507,-0.0524,-0.049,-0.0518,-0.0468,-0.0494,-0.0414,-0.0417,-0.0468,-0.0449,-0.0448,-0.0567,-0.0578,-0.0587,-0.06,0,0,0,0,0]},{"header":{"parameterUnit":"m.s-1","parameterCategory":2,"la1":30.2991,"la2":30.254,"lo1":-89.0895,"lo2":-89.0444,"dy":0.0017,"dx":0.0017,"nx":28,"ny":28,"refTime":"2024-08-04T03:00:00:Z","depth":"4","parameterNumber":3,"parameterNumberName":"V-component_of_CURRENTS"},"data":[0,0,0,0,0,0,0,0,0,0,0,0,0,0,0,0,0,0,0,0,0,0,0,0,0,0,0,0,0,0,0,0,0,0,0,0,0,0,0,0,0,0,0,0,0,0,0,0,0,0,0,0,0,0,0,0,0,0,-0.0216,-0.0216,0,-0.0191,-0.0191,-0.0191,-0.0191,-0.0191,-0.0192,-0.0192,-0.0172,-0.0172,-0.0171,0,0,0,0,0,0,0,0,0,0,0,0,0,-0.0239,-0.0239,-0.0216,-0.0216,-0.0215,-0.0191,-0.0191,-0.019,-0.0191,-0.0191,-0.0192,-0.0192,-0.0173,-0.0172,-0.0171,0,0,0,0,0,0,0,0,0,0,0,0,0,-0.0223,-0.0239,-0.0216,-0.0213,-0.0212,-0.0191,-0.0191,-0.019,-0.0191,-0.0191,-0.0192,-0.0192,-0.0173,-0.0172,-0.0171,-0.0153,0,0,-0.0167,-0.0166,0,0,0,0,0,0,0,0,-0.0224,-0.0222,-0.0214,-0.0213,-0.0212,-0.0195,-0.0192,-0.0178,-0.0191,-0.0199,-0.0192,-0.0193,-0.018,-0.0178,-0.0172,-0.0152,-0.0151,-0.0167,-0.0166,-0.0165,-0.0165,0,0,0,0,0,0,0,-0.0225,-0.0223,-0.0206,-0.0213,-0.0212,-0.0204,-0.0202,-0.0189,-0.0187,-0.0198,-0.0198,-0.0195,-0.018,-0.0174,-0.0172,-0.0151,-0.0167,-0.0166,-0.0165,-0.0164,-0.011,-0.011,0,0,0,0,0,0,-0.0229,-0.0224,-0.0207,-0.0206,-0.0219,-0.0203,-0.0201,-0.02,-0.0187,-0.0186,-0.0195,-0.0195,-0.0175,-0.0173,-0.0171,-0.0144,-0.0165,-0.0164,-0.0163,-0.0111,-0.011,-0.0109,0,0,0,0,0,0,-0.0229,-0.0227,-0.0208,-0.0214,-0.0211,-0.0202,-0.02,-0.0199,-0.0199,-0.0184,-0.0183,-0.0197,-0.0176,-0.0173,-0.0162,-0.0143,-0.0164,-0.0162,-0.0112,-0.0111,-0.011,-0.0092,0,0,0,0,0,0,-0.023,-0.0228,-0.0235,-0.0215,-0.0211,-0.0201,-0.02,-0.0198,-0.0196,-0.0197,-0.0186,-0.0184,-0.0176,-0.0164,-0.0161,-0.0142,-0.0161,-0.0113,-0.0111,-0.011,-0.0094,-0.0091,-0.0088,0,0,0,0,0,-0.0231,-0.0239,-0.0235,-0.0233,-0.0219,-0.0201,-0.0198,-0.0193,-0.0196,-0.0196,-0.0187,-0.0185,-0.0153,-0.0163,-0.0159,-0.0139,-0.0113,-0.0112,-0.011,-0.0095,-0.0092,-0.0088,0,0,0,0,0,0,-0.0254,-0.0239,-0.0235,-0.0238,-0.0222,-0.0201,-0.0205,-0.0196,-0.0188,-0.0193,-0.018,-0.0177,-0.0161,-0.0153,-0.0164,-0.012,-0.0131,-0.0129,-0.0121,-0.0117,-0.0115,-0.0122,-0.016,0,0,0,0,0,-0.026,-0.0264,-0.0241,-0.0246,-0.024,-0.0222,-0.0217,-0.0209,-0.0196,-0.0194,-0.0182,-0.0168,-0.0149,-0.0138,-0.0127,-0.0103,-0.01,-0.0086,-0.0084,-0.0081,-0.0084,-0.0054,-0.0049,-0.0104,-0.0104,-0.0104,0,0,-0.027,-0.0264,-0.0266,-0.0251,-0.0242,-0.0225,-0.0221,-0.0214,-0.0196,-0.0192,-0.0174,-0.0164,-0.0144,-0.0118,-0.0108,-0.0109,-0.0066,-0.0079,-0.0078,-0.0082,-0.0052,-0.0046,-0.0042,-0.0103,-0.0103,-0.0104,0,0,-0.0286,-0.0285,-0.0289,-0.0275,-0.026,-0.024,-0.0238,-0.0214,-0.0203,-0.0181,-0.0171,-0.0149,-0.0126,-0.0098,-0.0082,-0.0056,-0.0059,-0.0055,-0.0038,-0.0008,-0.0004,0.0001,0.0,0.0005,-0.0046,-0.0046,-0.0046,0,-0.0299,-0.0297,-0.0287,-0.0281,-0.027,-0.0245,-0.0235,-0.0212,-0.0186,-0.0176,-0.0177,-0.0133,-0.0111,-0.0069,-0.0055,-0.0049,-0.0049,-0.0052,-0.0005,-0.0001,0.0003,0.0002,0.0007,-0.0045,-0.0045,-0.0045,-0.0045,0,-0.0306,-0.0306,-0.0307,-0.0287,-0.0272,-0.0261,-0.0224,-0.0209,-0.0191,-0.0168,-0.0138,-0.0106,-0.0082,-0.006,-0.0047,-0.0003,-0.002,-0.0011,-0.0014,0.001,0.0007,0.0011,-0.0043,-0.0043,-0.0044,-0.0044,0,0,-0.0322,-0.0314,-0.0314,-0.0311,-0.0274,-0.0264,-0.0231,-0.0195,-0.0188,-0.0147,-0.0132,-0.0071,-0.0065,-0.0046,-0.0022,0.0018,0.0054,0.0016,0.0017,0.0013,0.0093,0.0066,0.0068,0.0068,0.0069,0.007,0.0076,0,-0.0327,-0.0328,-0.0314,-0.0303,-0.0295,-0.0265,-0.0241,-0.0208,-0.0182,-0.0162,-0.0108,-0.0091,-0.0054,-0.0052,-0.0,0.0032,0.0067,0.005,0.0073,0.0073,0.0044,0.0073,0.0073,0.0079,0.008,0.008,0.0081,0,-0.0328,-0.033,-0.0329,-0.032,-0.0316,-0.0305,-0.0279,-0.0256,-0.0212,-0.0197,-0.0158,-0.0131,-0.0066,-0.0046,0.004,0.0022,0.0059,0.0091,0.0092,0.0063,0.0054,0.0053,0.0088,0.0088,0.0087,0.0087,0.0086,0,-0.0342,-0.0336,-0.0342,-0.0336,-0.0319,-0.032,-0.0309,-0.0274,-0.0265,-0.023,-0.0225,-0.0153,-0.0129,-0.0057,0.0018,0.0024,0.0097,0.0114,0.0124,0.0121,0.0134,0.0129,0.0174,0.0174,0.0174,0.0174,0.0174,0,-0.0342,-0.0348,-0.0359,-0.0362,-0.0379,-0.0356,-0.0368,-0.0349,-0.0325,-0.0315,-0.0255,-0.0234,-0.0129,-0.0072,0.0,0.0068,0.0085,0.0126,0.0128,0.0139,0.0135,0.0136,0.0131,0.0174,0.0174,0.0174,0.0174,0,-0.0353,-0.0356,-0.0375,-0.0382,-0.0389,-0.0407,-0.0415,-0.0419,-0.0395,-0.0381,-0.0372,-0.0296,-0.0225,-0.013,-0.0026,0.0031,0.0103,0.0121,0.0101,0.0102,0.0107,0.0104,0.0133,0.0132,0.0131,0.0131,0.013,0,-0.0358,-0.037,-0.0407,-0.0428,-0.0439,-0.0462,-0.0475,-0.046,-0.0456,-0.0414,-0.0403,-0.0342,-0.0282,-0.016,-0.0063,0.0051,0.0076,0.0102,0.0138,0.0107,0.0107,0.0104,0.0102,0.013,0.0129,0.0129,0.0129,0,-0.0374,-0.0398,-0.0419,-0.0465,-0.0495,-0.0521,-0.0533,-0.0532,-0.0502,-0.0484,-0.0423,-0.035,-0.0277,-0.0169,-0.0092,-0.0001,0.0083,0.0096,0.0099,0.0133,0.0104,0.0103,0.0101,0.0127,0.0127,0.0127,0.0128,0,-0.0397,-0.0423,-0.0459,-0.0498,-0.0538,-0.0559,-0.0563,-0.0544,-0.0535,-0.0471,-0.0457,-0.0364,-0.0308,-0.0198,-0.012,-0.0044,-0.0011,0.0026,0.0033,0.0037,0.0014,-0.0037,-0.0053,0,0,0,0,0,-0.0413,-0.0442,-0.0482,-0.053,-0.057,-0.0596,-0.0588,-0.0579,-0.0549,-0.0507,-0.0475,-0.0401,-0.0278,-0.0227,-0.0154,-0.0136,-0.0009,-0.0049,0.0035,0.0115,0.0118,0.0106,0,0,0,0,0,0,-0.0424,-0.0466,-0.0485,-0.0546,-0.0589,-0.0629,-0.063,-0.0607,-0.057,-0.0525,-0.0458,-0.0406,-0.0289,-0.0336,-0.0168,-0.0144,-0.0082,0.001,0.0012,0.0114,0.0116,0.0118,0.0107,0,0,0,0,0]}]]